Weather in Uragi

Russia / Republic of Dagestan     42°04′04″N   47°34′09″E
temp.,
°C
wind,
m/s
gust,
m/s
humid.,
%
clouds,
%
prec.,
mm/h
press.,
hPa
HPBL,
m
8 may, sat
sat800:00+5sw22865 0.0 101911
03:00+4sw22852 0.0 102010
06:00+6ssw11720 0.0 102067
09:00+12ene33502 0.0 10171122
12:00+14ene44515 0.0 10141347
15:00+14ene426121 0.0 1014716
18:00+11e2183100 0.3 1015143
21:00+9sw2265100 0.3 101522
9 may, sun
sun900:00+7sw43450 0.0 101429
03:00+7sw434743 0.0 101332
06:00+9sw335726 0.0 101157
09:00+17wsw1334100 0.0 10081052
12:00+19sw473292 0.0 10062250
15:00+19wsw2632100 0.0 10042235
18:00+13ene3371100 0.0 100694
21:00+9ssw2392100 10.1 1010254
10 may, mon
mon1000:00+7ese1294100 3.1 101186
03:00+7e2297100 3.6 1011200
06:00+3ene3398100 1.9 1014297
09:00−1nne32100100 12.6 1019202
12:000ne22100100 12.1 1019347
15:000ne22100100 16.7 1020101
18:00−1n2298100 0.4 1022194
21:00−2ene0198100 0.5 1023134
11 may, tue
tue1100:00−2se229784 0.1 102384
03:00−6s329031 0.1 102515
06:00−3se22905 0.0 102347
09:00+1ene3310099 0.0 1018174
12:00+2e33100100 0.1 1016154
15:00+3e22100100 0.1 1016142
18:00+2e11100100 0.0 101871
21:00+1sw229533 0.0 102020
12 may, wed
wed1200:00+1sw33810 0.0 101819
03:00+2ssw33820 0.0 101618
06:00+4sw32900 0.0 101521
09:00+10se01863 0.0 1013173
12:00+15ne03520 0.0 10121063
15:00+16w05420 0.1 10111280
18:00+13ssw116252 0.0 101214
21:00+8sw4352100 0.0 101630